Weather History for KABQ - September, 2012

Change the Weather History Date:

Thursday, September 6, 2012

  Actual Average Record
Temperature  
Mean Temperature 81 °F 73 °F  
Max Temperature 93 °F 84 °F 98 °F (1979)
Min Temperature 69 °F 61 °F 46 °F (1912)
Degree Days  
Heating Degree Days 0 0  
Month to date heating degree days 0 0  
Since 1 July heating degree days 0 0  
Cooling Degree Days 16 8  
Month to date cooling degree days 98 51  
Year to date cooling degree days 1644 1208  
Growing Degree Days 31 (Base 50)    
Moisture  
Dew Point 47 °F    
Average Humidity 31    
Maximum Humidity 43    
Minimum Humidity 19    
Precipitation  
Precipitation T in 0.03 in 0.72 in (1991)
Month to date precipitation T 0.22  
Year to date precipitation 4.79 6.50  
Snow  
Snow 0.00 in - - ()
Month to date snowfall 0.0  
Since 1 July snowfall 0.0  
Since 1 September snowfall 0.0  
Snow Depth 0.00 in    
Sea Level Pressure  
Sea Level Pressure 29.87 in    
Wind  
Wind Speed 6 mph (West)    
Max Wind Speed 24 mph    
Max Gust Speed 29 mph    
Visibility 10 miles    
Events Rain , Thunderstorm    
T = Trace of Precipitation, MM = Missing Value Source: NWS Daily Summary

Daily Weather History Graph

Daily Weather History Graph

Search for Another Location

Airport or City:

Trip Planner

Search our weather history database for the weather conditions in past years. The results will help you decide how hot, cold, wet, or windy it might be!

Date:

Astronomy

Sep. 06, 2012 Rise Set
Actual Time 6:43 AM MDT 7:25 PM MDT
Civil Twilight 6:17 AM MDT 7:51 PM MDT
Nautical Twilight 5:47 AM MDT 8:21 PM MDT
Astronomical Twilight 5:16 AM MDT 8:52 PM MDT
Moon 10:54 PM MDT (9/6) 12:29 PM MDT (9/6)
Length of Visible Light 13h 33m
Length of Day
12h 42m
Waning Gibbous, 67% of the Moon is Illuminated
Sep 6
Waning Gibbous
Sep 8
Last Quarter
Sep 15
New
Sep 22
First Quarter
Sep 29
Full

Hourly Weather History & Observations

Time (MDT) Temp. Dew Point Humidity Pressure Visibility Wind Dir Wind Speed Gust Speed Precip Events Conditions
12:52 AM 79.0 °F 37.0 °F 22% 29.85 in 10.0 mi East 5.8 mph - N/A   Scattered Clouds
1:52 AM 79.0 °F 39.9 °F 25% 29.84 in 10.0 mi East 5.8 mph - N/A   Mostly Cloudy
2:52 AM 77.0 °F 42.1 °F 29% 29.84 in 10.0 mi SE 9.2 mph - N/A   Mostly Cloudy
3:52 AM 75.9 °F 45.0 °F 33% 29.84 in 10.0 mi East 10.4 mph - N/A   Scattered Clouds
4:52 AM 73.9 °F 45.0 °F 35% 29.86 in 10.0 mi NNW 6.9 mph - N/A   Scattered Clouds
5:52 AM 72.0 °F 42.1 °F 34% 29.86 in 10.0 mi ENE 3.5 mph - N/A   Scattered Clouds
6:52 AM 69.1 °F 42.1 °F 38% 29.89 in 10.0 mi North 4.6 mph - N/A   Scattered Clouds
7:52 AM 70.0 °F 44.1 °F 39% 29.92 in 10.0 mi NW 4.6 mph - N/A   Mostly Cloudy
8:52 AM 72.0 °F 46.0 °F 40% 29.93 in 10.0 mi WNW 8.1 mph - N/A   Mostly Cloudy
9:52 AM 75.0 °F 46.0 °F 36% 29.94 in 10.0 mi Calm Calm - 0.00 in   Scattered Clouds
10:52 AM 79.0 °F 50.0 °F 36% 29.93 in 10.0 mi WSW 5.8 mph - N/A   Scattered Clouds
11:52 AM 82.9 °F 52.0 °F 34% 29.90 in 10.0 mi Variable 6.9 mph - N/A   Scattered Clouds
12:52 PM 84.0 °F 52.0 °F 33% 29.87 in 10.0 mi Variable 3.5 mph - N/A   Scattered Clouds
1:52 PM 88.0 °F 50.0 °F 27% 29.83 in 10.0 mi Calm Calm - N/A   Scattered Clouds
2:52 PM 89.1 °F 46.0 °F 22% 29.80 in 10.0 mi Calm Calm - N/A   Scattered Clouds
3:52 PM 93.0 °F 45.0 °F 19% 29.76 in 10.0 mi Variable 3.5 mph - N/A   Scattered Clouds
4:52 PM 91.0 °F 45.0 °F 20% 29.75 in 10.0 mi Calm Calm - N/A   Scattered Clouds
5:32 PM 89.6 °F 44.6 °F 21% 30.05 in 10.0 mi WSW 10.4 mph - N/A Thunderstorm Thunderstorm
5:52 PM 87.1 °F 48.0 °F 26% 29.77 in 10.0 mi West 8.1 mph - N/A Thunderstorm Thunderstorm
5:57 PM 87.8 °F 48.2 °F 25% 30.05 in 10.0 mi West 11.5 mph 19.6 mph N/A   Mostly Cloudy
6:02 PM 84.2 °F 48.2 °F 29% 30.05 in 10.0 mi West 13.8 mph 19.6 mph N/A Thunderstorm Thunderstorm
6:36 PM 86.0 °F 48.2 °F 27% 30.05 in 10.0 mi NNW 9.2 mph - N/A   Mostly Cloudy
6:52 PM 84.9 °F 48.0 °F 28% 29.79 in 10.0 mi North 6.9 mph - N/A   Mostly Cloudy
7:52 PM 84.0 °F 48.0 °F 28% 29.80 in 10.0 mi SW 4.6 mph - N/A   Mostly Cloudy
8:52 PM 81.0 °F 50.0 °F 34% 29.84 in 10.0 mi South 18.4 mph 25.3 mph N/A   Mostly Cloudy
9:52 PM 80.1 °F 52.0 °F 38% 29.84 in 10.0 mi South 20.7 mph - N/A   Mostly Cloudy
10:52 PM 75.9 °F 52.0 °F 43% 29.86 in 10.0 mi SE 6.9 mph - N/A   Scattered Clouds
11:52 PM 75.0 °F 52.0 °F 44% 29.86 in 10.0 mi ESE 6.9 mph - N/A   Scattered Clouds